Location: Unspecified
(0.0000°N, 0.0000°E)
Time: 05:24:23
(UTC+00:00)

FORMOSAT 3E - Pass Details

Date: 20 May 2026
Orbit: 740 x 833 km, 72.0° (Epoch: 11 June)

Event Time Altitude Azimuth Distance (km) Brightness Sun altitude
Rises 19:31:19 0° 354° (N) 3,161 11.6 -22.2°
Reaches altitude 10° 19:33:42 10° 358° (N) 2,245 10.7 -22.7°
Enters shadow 19:38:25 54° 64° (ENE) 902 8.1 -23.8°
